[[{"header":{"parameterUnit":"m.s-1","parameterCategory":1,"la1":30.2991,"la2":30.254,"lo1":-89.0895,"lo2":-89.0444,"dy":0.0017,"dx":0.0017,"nx":28,"ny":28,"refTime":"2025-11-25T09:00:00:Z","depth":0,"parameterNumber":2,"parameterNumberName":"U-component_of_WINDS"},"data":[0,0,0,0,0,0,0,0,0,0,0,0,0,0,0,0,0,0,0,0,0,0,0,0,0,0,0,0,0,0,0,0,0,0,0,0,0,0,0,0,0,0,0,0,0,0,0,0,0,0,0,0,0,0,0,0,0,0,0.0379,0.0379,0,0.0354,0.0354,0.0353,0.0382,0.0383,0.0384,0.0385,0.0356,0.0354,0.0352,0,0,0,0,0,0,0,0,0,0,0,0,0,0.0449,0.0447,0.0379,0.0379,0.0378,0.0354,0.0354,0.0353,0.0381,0.0383,0.0384,0.0385,0.0356,0.0354,0.0352,0,0,0,0,0,0,0,0,0,0,0,0,0,0.042,0.0447,0.0379,0.0389,0.039,0.0354,0.0354,0.0353,0.0381,0.0383,0.0384,0.0386,0.0357,0.0354,0.0352,0.0303,0,0,0.0344,0.0342,0,0,0,0,0,0,0,0,0.0422,0.0418,0.0388,0.0389,0.0389,0.0373,0.0368,0.0336,0.0381,0.0384,0.0385,0.0387,0.036,0.0357,0.0349,0.0302,0.03,0.0343,0.0342,0.0341,0.034,0,0,0,0,0,0,0,0.0424,0.0419,0.0369,0.0388,0.0388,0.0395,0.0392,0.0362,0.0363,0.0384,0.0386,0.0383,0.036,0.0351,0.0348,0.03,0.0343,0.0341,0.0339,0.0338,0.0212,0.021,0,0,0,0,0,0,0.0425,0.0421,0.037,0.0368,0.041,0.0392,0.039,0.0376,0.0364,0.0363,0.0382,0.0384,0.0355,0.0351,0.0347,0.0289,0.0341,0.0338,0.0337,0.0214,0.0212,0.021,0,0,0,0,0,0,0.0426,0.042,0.0371,0.0395,0.0389,0.0389,0.0374,0.0375,0.0366,0.0362,0.0362,0.0372,0.0356,0.0351,0.0314,0.0288,0.0337,0.0334,0.0216,0.0213,0.0211,0.0172,0,0,0,0,0,0,0.0428,0.0421,0.0402,0.0394,0.0388,0.0338,0.0372,0.0373,0.0361,0.0365,0.0353,0.0352,0.0357,0.0318,0.0311,0.0286,0.0332,0.0218,0.0215,0.0212,0.0176,0.0169,0.0162,0,0,0,0,0,0.0431,0.0392,0.0401,0.0395,0.0365,0.0337,0.0333,0.034,0.0359,0.0341,0.0338,0.0353,0.0293,0.0314,0.0307,0.028,0.022,0.0216,0.0212,0.0179,0.017,0.0163,0,0,0,0,0,0,0.0395,0.0391,0.0401,0.0359,0.0348,0.0342,0.0318,0.033,0.0313,0.0317,0.0326,0.0323,0.0283,0.0278,0.0302,0.0232,0.0259,0.0254,0.0237,0.0228,0.0222,0.0223,0.033,0,0,0,0,0,0.0383,0.0361,0.0358,0.0321,0.0315,0.0318,0.0306,0.0312,0.0301,0.0296,0.0291,0.0279,0.0258,0.0243,0.0223,0.0176,0.0173,0.0154,0.0148,0.0142,0.0136,0.0111,0.0102,0.0197,0.0197,0.0197,0,0,0.0356,0.0351,0.0336,0.0313,0.0306,0.0282,0.0313,0.0287,0.0269,0.0292,0.0257,0.0253,0.024,0.0198,0.0179,0.0192,0.011,0.0137,0.0133,0.013,0.0106,0.0097,0.0089,0.0194,0.0195,0.0195,0,0,0.0294,0.0289,0.0257,0.025,0.0239,0.0241,0.0234,0.0226,0.0224,0.019,0.0206,0.0186,0.0148,0.0139,0.0129,0.0066,0.0078,0.006,0.0024,-0.0001,-0.0008,-0.0015,-0.0038,-0.0047,0.0054,0.0054,0.0054,0,0.0262,0.0228,0.0239,0.0212,0.0201,0.0223,0.019,0.0182,0.0164,0.0156,0.0172,0.0127,0.0119,0.0075,0.006,0.0052,0.0043,0.006,-0.0008,-0.0015,-0.0021,-0.0043,-0.0051,0.0052,0.0052,0.0053,0.0053,0,0.0188,0.0165,0.014,0.0124,0.0111,0.0081,0.0087,0.0073,0.0081,0.0082,0.0046,0.0039,0.0018,0.0009,0.0016,-0.0035,-0.0026,-0.0009,0.0018,-0.0032,-0.0053,-0.0061,0.0049,0.005,0.005,0.0051,0,0,0.0101,0.0093,0.0084,0.0077,0.0068,0.0049,0.0021,0.0002,-0.0012,-0.0023,-0.0048,-0.0079,-0.0063,-0.0074,-0.0067,-0.0088,-0.0138,-0.0069,-0.0069,-0.0083,-0.0195,-0.0209,-0.0219,-0.0129,-0.0131,-0.0132,-0.0195,0,0.0039,-0.001,-0.0,-0.0048,-0.007,-0.0049,-0.0074,-0.0083,-0.0082,-0.0101,-0.0101,-0.0123,-0.01,-0.0106,-0.0126,-0.0128,-0.0161,-0.0123,-0.0153,-0.0154,-0.0153,-0.023,-0.0245,-0.0304,-0.0203,-0.0204,-0.0205,0,-0.0041,-0.0055,-0.0105,-0.011,-0.0119,-0.0141,-0.0158,-0.0176,-0.0185,-0.0183,-0.0194,-0.0183,-0.0212,-0.0182,-0.0222,-0.0197,-0.0208,-0.021,-0.0212,-0.0217,-0.0184,-0.0238,-0.0323,-0.0333,-0.0217,-0.0216,-0.0215,0,-0.0102,-0.0132,-0.0166,-0.0172,-0.0179,-0.0195,-0.0199,-0.0206,-0.0218,-0.0232,-0.024,-0.0258,-0.0268,-0.0282,-0.0276,-0.0255,-0.0317,-0.0287,-0.0318,-0.0318,-0.0334,-0.0334,-0.0424,-0.0338,-0.0338,-0.0337,-0.0337,0,-0.0174,-0.0206,-0.0193,-0.0214,-0.0249,-0.0237,-0.0272,-0.0273,-0.028,-0.0301,-0.0283,-0.0304,-0.0293,-0.0313,-0.0308,-0.0342,-0.0347,-0.0347,-0.0346,-0.035,-0.035,-0.0359,-0.0355,-0.034,-0.0339,-0.0339,-0.0338,0,-0.0248,-0.0241,-0.0277,-0.0279,-0.028,-0.0306,-0.0308,-0.0328,-0.0325,-0.0352,-0.0358,-0.0354,-0.0376,-0.0371,-0.0395,-0.0392,-0.0435,-0.0428,-0.0432,-0.0431,-0.0463,-0.0461,-0.0563,-0.0577,-0.0481,-0.0482,-0.0482,0,-0.0296,-0.032,-0.0324,-0.0336,-0.0341,-0.0361,-0.0372,-0.036,-0.0373,-0.0385,-0.0403,-0.0423,-0.0439,-0.0476,-0.0476,-0.0494,-0.0488,-0.0523,-0.0491,-0.0495,-0.0491,-0.049,-0.0493,-0.053,-0.0531,-0.0532,-0.0533,0,-0.0381,-0.0376,-0.0393,-0.0408,-0.0422,-0.0434,-0.0444,-0.0455,-0.0444,-0.0459,-0.0481,-0.0493,-0.0517,-0.0538,-0.0554,-0.0558,-0.0545,-0.0542,-0.0551,-0.0557,-0.0559,-0.0559,-0.0452,-0.0541,-0.054,-0.054,-0.0539,-0.0539,-0.0445,-0.0465,-0.0471,-0.049,-0.0496,-0.0505,-0.0524,-0.0522,-0.054,-0.0558,-0.055,-0.0575,-0.0583,-0.0603,-0.0609,-0.0629,-0.0616,-0.0628,-0.0632,-0.0635,-0.064,-0.0553,-0.0632,-0.0632,-0.0632,-0.0631,-0.0631,0,-0.0531,-0.0533,-0.055,-0.0564,-0.0579,-0.0562,-0.0572,-0.0586,-0.0608,-0.0616,-0.0631,-0.0656,-0.0675,-0.0676,-0.0694,-0.071,-0.0704,-0.0715,-0.0715,-0.0717,-0.065,-0.0641,-0.072,-0.072,-0.072,-0.072,-0.072,-0.072,-0.0578,-0.0611,-0.0606,-0.0642,-0.0643,-0.0667,-0.0675,-0.0683,-0.0689,-0.0718,-0.0733,-0.0732,-0.0737,-0.0755,-0.0772,-0.0772,-0.078,-0.0795,-0.0792,-0.073,-0.0721,-0.0713,-0.0705,-0.0796,-0.0796,-0.0857,-0.0858,-0.0858]},{"header":{"parameterUnit":"m.s-1","parameterCategory":1,"la1":30.2991,"la2":30.254,"lo1":-89.0895,"lo2":-89.0444,"dy":0.0017,"dx":0.0017,"nx":28,"ny":28,"refTime":"2025-11-25T09:00:00:Z","depth":0,"parameterNumber":3,"parameterNumberName":"V-component_of_WINDS"},"data":[0,0,0,0,0,0,0,0,0,0,0,0,0,0,0,0,0,0,0,0,0,0,0,0,0,0,0,0,0,0,0,0,0,0,0,0,0,0,0,0,0,0,0,0,0,0,0,0,0,0,0,0,0,0,0,0,0,0,-7.0749,-7.075,0,-7.0861,-7.0863,-7.0864,-7.0753,-7.0749,-7.0745,-7.074,-7.085,-7.0856,-7.0863,0,0,0,0,0,0,0,0,0,0,0,0,0,-7.0434,-7.044,-7.0749,-7.075,-7.0752,-7.0861,-7.0863,-7.0864,-7.0754,-7.0749,-7.0743,-7.0738,-7.0847,-7.0856,-7.0864,0,0,0,0,0,0,0,0,0,0,0,0,0,-7.0561,-7.0442,-7.0749,-7.071,-7.0708,-7.0861,-7.0863,-7.0864,-7.0755,-7.0749,-7.0742,-7.0736,-7.0845,-7.0855,-7.0865,-7.106,0,0,-7.0897,-7.0902,0,0,0,0,0,0,0,0,-7.0553,-7.0572,-7.0714,-7.0713,-7.0711,-7.0787,-7.0791,-7.093,-7.0757,-7.0737,-7.074,-7.0733,-7.0834,-7.0845,-7.088,-7.1065,-7.107,-7.0898,-7.0904,-7.0909,-7.0912,0,0,0,0,0,0,0,-7.0545,-7.0567,-7.0793,-7.0717,-7.0714,-7.0685,-7.0696,-7.0817,-7.082,-7.0738,-7.073,-7.0746,-7.0831,-7.087,-7.0881,-7.1071,-7.0898,-7.0907,-7.0913,-7.0917,-7.1422,-7.1428,0,0,0,0,0,0,-7.0541,-7.056,-7.0789,-7.0796,-7.0615,-7.0696,-7.0708,-7.0769,-7.0819,-7.082,-7.0751,-7.074,-7.0855,-7.0869,-7.0885,-7.1116,-7.0909,-7.0918,-7.0924,-7.1414,-7.1423,-7.1431,0,0,0,0,0,0,-7.0535,-7.0563,-7.0785,-7.0676,-7.0702,-7.0709,-7.0777,-7.0774,-7.0813,-7.0829,-7.0828,-7.079,-7.0851,-7.087,-7.1018,-7.1119,-7.0923,-7.0933,-7.1406,-7.1417,-7.1427,-7.1581,0,0,0,0,0,0,-7.0526,-7.0561,-7.0637,-7.0679,-7.0709,-7.0918,-7.0784,-7.0781,-7.0832,-7.0819,-7.0865,-7.0867,-7.0847,-7.1003,-7.1028,-7.1129,-7.0941,-7.1397,-7.1411,-7.1424,-7.1567,-7.1596,-7.162,0,0,0,0,0,-7.0515,-7.0674,-7.0641,-7.0669,-7.0804,-7.0924,-7.0941,-7.0917,-7.0841,-7.0916,-7.0925,-7.0865,-7.1104,-7.1019,-7.1046,-7.1152,-7.139,-7.1407,-7.1423,-7.1555,-7.159,-7.162,0,0,0,0,0,0,-7.0641,-7.0679,-7.0643,-7.082,-7.087,-7.0905,-7.0999,-7.0955,-7.1026,-7.101,-7.0975,-7.0987,-7.1143,-7.1162,-7.1067,-7.1343,-7.1234,-7.1257,-7.1326,-7.1359,-7.1385,-7.1377,-7.0949,0,0,0,0,0,-7.069,-7.0787,-7.0814,-7.0968,-7.0995,-7.0994,-7.1045,-7.1022,-7.1072,-7.1092,-7.1112,-7.1161,-7.1246,-7.1303,-7.1383,-7.1569,-7.1577,-7.1655,-7.1682,-7.1704,-7.1724,-7.1823,-7.1858,-7.1483,-7.1483,-7.1483,0,0,-7.0791,-7.0824,-7.0887,-7.0994,-7.103,-7.1129,-7.1012,-7.1122,-7.1194,-7.1107,-7.1249,-7.1266,-7.1317,-7.1485,-7.156,-7.1506,-7.1829,-7.1724,-7.1742,-7.175,-7.1843,-7.1879,-7.191,-7.1494,-7.1492,-7.1491,0,0,-7.1027,-7.1062,-7.1194,-7.1233,-7.129,-7.1288,-7.132,-7.1362,-7.137,-7.1512,-7.1449,-7.1534,-7.1682,-7.1722,-7.1761,-7.2012,-7.1959,-7.2039,-7.2178,-7.2276,-7.2305,-7.2331,-7.2421,-7.2454,-7.2058,-7.2059,-7.2059,0,-7.1145,-7.1294,-7.1267,-7.1383,-7.1431,-7.1359,-7.1492,-7.153,-7.1609,-7.1644,-7.1582,-7.1768,-7.1797,-7.1973,-7.2035,-7.2069,-7.2103,-7.2034,-7.2304,-7.2329,-7.2353,-7.2438,-7.2472,-7.2068,-7.2067,-7.2066,-7.2065,0,-7.1437,-7.1541,-7.1641,-7.1722,-7.1781,-7.1905,-7.1895,-7.1958,-7.193,-7.1934,-7.2079,-7.2112,-7.2197,-7.2237,-7.221,-7.241,-7.2374,-7.2309,-7.2199,-7.2399,-7.2478,-7.251,-7.2082,-7.2078,-7.2076,-7.2073,0,0,-7.1755,-7.182,-7.1857,-7.1893,-7.195,-7.2029,-7.2149,-7.2234,-7.2289,-7.2346,-7.2445,-7.2572,-7.2512,-7.2558,-7.2534,-7.262,-7.2816,-7.2543,-7.2544,-7.2593,-7.3038,-7.3087,-7.3126,-7.2781,-7.2787,-7.2792,-7.3034,0,-7.1993,-7.2203,-7.2182,-7.2381,-7.2477,-7.241,-7.2513,-7.2559,-7.2566,-7.2646,-7.2652,-7.2744,-7.2657,-7.2684,-7.2766,-7.2775,-7.2905,-7.2757,-7.2872,-7.2876,-7.2862,-7.3167,-7.3219,-7.3446,-7.3064,-7.307,-7.3073,0,-7.2298,-7.2368,-7.2578,-7.2621,-7.266,-7.2755,-7.2831,-7.2909,-7.2959,-7.2957,-7.3009,-7.297,-7.3089,-7.2976,-7.3138,-7.3038,-7.3083,-7.3095,-7.3103,-7.3113,-7.2988,-7.3185,-7.3517,-7.3552,-7.3122,-7.3118,-7.3115,0,-7.251,-7.2656,-7.2801,-7.2833,-7.2887,-7.2955,-7.298,-7.3023,-7.3076,-7.3142,-7.3176,-7.3254,-7.3297,-7.3358,-7.3341,-7.3261,-7.3507,-7.3393,-7.3508,-7.3509,-7.3563,-7.356,-7.3908,-7.3592,-7.3592,-7.3591,-7.359,0,-7.2778,-7.2909,-7.2897,-7.2986,-7.313,-7.3104,-7.3246,-7.3262,-7.3302,-7.3391,-7.3336,-7.3421,-7.3394,-7.3476,-7.3464,-7.36,-7.3619,-7.3621,-7.3616,-7.3626,-7.3626,-7.3656,-7.364,-7.36,-7.3598,-7.3596,-7.3595,0,-7.3039,-7.3036,-7.319,-7.3228,-7.3241,-7.3346,-7.3378,-7.3461,-7.3463,-7.3577,-7.3602,-7.3605,-7.37,-7.3689,-7.3794,-7.3785,-7.3955,-7.3931,-7.3939,-7.3934,-7.405,-7.404,-7.4429,-7.4479,-7.4131,-7.4134,-7.4137,0,-7.3211,-7.331,-7.336,-7.3417,-7.3448,-7.354,-7.3594,-7.3572,-7.363,-7.3694,-7.3769,-7.3859,-7.393,-7.4084,-7.4095,-7.4175,-7.4152,-7.4283,-7.4164,-7.4171,-7.4155,-7.4149,-7.4159,-7.4307,-7.4311,-7.4314,-7.4317,0,-7.3515,-7.3509,-7.3591,-7.3672,-7.3739,-7.3801,-7.3858,-7.3907,-7.3889,-7.3957,-7.4055,-7.411,-7.4219,-7.4308,-7.4384,-7.4407,-7.436,-7.4354,-7.4385,-7.4397,-7.4398,-7.44,-7.4004,-7.4345,-7.4343,-7.434,-7.4339,-7.4338,-7.3737,-7.3823,-7.3872,-7.3964,-7.4004,-7.4059,-7.4139,-7.4152,-7.4233,-7.4322,-7.4302,-7.4412,-7.4458,-7.4555,-7.4586,-7.467,-7.4623,-7.4667,-7.4679,-7.4691,-7.4705,-7.4385,-7.4684,-7.4683,-7.4682,-7.4682,-7.4681,0,-7.4039,-7.4068,-7.4153,-7.4235,-7.4308,-7.4258,-7.4318,-7.4381,-7.4479,-7.4527,-7.4599,-7.471,-7.4797,-7.4815,-7.4897,-7.4961,-7.4942,-7.4984,-7.4979,-7.4985,-7.4742,-7.4708,-7.4999,-7.4999,-7.4999,-7.4999,-7.4998,-7.4998,-7.4205,-7.4348,-7.4348,-7.4509,-7.4535,-7.4644,-7.4683,-7.4732,-7.477,-7.4898,-7.4971,-7.4982,-7.5018,-7.5103,-7.518,-7.5182,-7.5215,-7.5267,-7.5261,-7.5034,-7.5002,-7.4972,-7.4939,-7.5274,-7.5275,-7.5497,-7.5499,-7.5501]}]]